Regional Weather Roundup
Issued by NWS

Home | Current Version | Previous Version | Text Only | Print | Product List | Glossary On
Versions: 1 2 3 4 5 6 7 8 9 10 11 12 13 14 15 16 17 18 19 20 21 22 23 24 25 26 27 28 29 30 31 32 33 34 35 36 37 38 39 40 41 42 43 44 45 46 47 48 49 50
000
ASUS43 KDMX 211407
RWRIA

WEATHER ROUNDUP FOR IOWA
NATIONAL WEATHER SERVICE DES MOINES IA
900 AM CDT TUE APR 21 2015

NOTE: "FAIR" INDICATES FEW OR NO CLOUDS BELOW 12,000 FEET WITH NO
SIGNIFICANT WEATHER AND/OR OBSTRUCTIONS TO VISIBILITY.

* - THESE STATIONS ARE NOT NWS STATIONS...THUS NOT UNDER NWS
QUALITY CONTROL.  THEY ALSO DO NOT REPORT WEATHER SUCH
AS PRECIPITATION OR FOG.

IAZ001>003-012>014-020>022-031>034-043>046-211500-
   NORTHWEST IOWA

CITY           SKY/WX    TMP DP  RH WIND       PRES   REMARKS
CARROLL *      SUNNY     43  21  42 W17       29.76S
CHEROKEE *     SUNNY     39  25  56 NW13G21   29.77S WCI  32
DENISON *      SUNNY     43  21  42 W17       29.76S
LE MARS *      SUNNY     39  21  48 NW15      29.81R WCI  31
ORANGE CITY *  MOSUNNY   37  23  56 NW17      29.77S WCI  28
SHELDON *      PTSUNNY   36  25  64 NW18G26   29.75S WCI  25
SIOUX CITY     SUNNY     44  22  41 NW17G23   29.80S
SPENCER        MOSUNNY   37  26  64 NW18G28   29.74R WCI  27
STORM LAKE *   SUNNY     39  23  52 NW21      29.76R WCI  29
$$

IAZ055>058-069>071-079>083-090>094-211500-
   SOUTHWEST IOWA

CITY           SKY/WX    TMP DP  RH WIND       PRES   REMARKS
ATLANTIC *     SUNNY     46  25  42 W12       29.80R
AUDUBON *      SUNNY     46  21  36 W12G18    29.78S
CLARINDA *     SUNNY     48  30  49 W12       29.84S
COUNCIL BLFS * SUNNY     48  25  40 W12G18    29.81S
CRESTON *      SUNNY     45  27  49 W13       29.79F
HARLAN  *      SUNNY     45  27  49 W17       29.82F
LAMONI         SUNNY     49  28  44 W13       29.80S
RED OAK *      SUNNY     48  28  46 W12       29.82S
SHENANDOAH *   SUNNY     48  34  57 W6        29.84S
$$

IAZ047>049-059>061-072>074-084-211500-
   CENTRAL IOWA

CITY           SKY/WX    TMP DP  RH WIND       PRES   REMARKS
AMES           SUNNY     43  26  51 W17G23    29.73R
ANKENY *       SUNNY     45  23  42 W13       29.75S
CHARITON *     SUNNY     46  23  39 W15       29.77S
DES MOINES     MOSUNNY   45  22  40 W15       29.76S
GRINNELL*      SUNNY     43  30  61 W15       29.73S
KNOXVILLE *    SUNNY     45  23  42 W17       29.74F
MARSHALLTOWN   SUNNY     43  31  62 W21       29.69F
PELLA *        SUNNY     45  30  57 W13       29.76S
PERRY *          N/A     43  27  52 W20       29.76S
$$

IAZ004>006-015-016-023>025-035-036-211500-
   NORTH CENTRAL IOWA

CITY           SKY/WX    TMP DP  RH WIND       PRES   REMARKS
ALGONA *       SUNNY     37  28  70 NW22G29   29.72R WCI  27
CLARION *      SUNNY     41  30  65 NW26G33   29.70R
ESTHERVILLE    SUNNY     37  25  61 NW23G32   29.71R WCI  26
FORT DODGE *   SUNNY     43  28  56 W10G18    29.73R
MASON CITY     MOSUNNY   39  28  64 NW30G38   29.67R WCI  27
FOREST CITY *  MOSUNNY   36  28  75 NW28G35   29.67R WCI  23
IOWA FALLS *     N/A     43  30  61 W29G36    29.69F
$$

IAZ007>011-017>019-026>030-037>042-050>054-066-211500-
   NORTHEAST IOWA

CITY           SKY/WX    TMP DP  RH WIND       PRES   REMARKS
CEDAR RAPIDS   SUNNY     43  33  68 W18G24    29.69F
CHARLES CITY * CLOUDY    39  32  75 W26G33    29.64S WCI  28
CLINTON *      SUNNY     45  28  53 W29G35    29.70S
DECORAH *      CLOUDY    37  27  65 W15G28    29.58S WCI  28
DUBUQUE        MOSUNNY   42  28  57 W22G35    29.62F
MONTICELLO *   SUNNY     43  30  61 W21G28    29.65F
OELWEIN *      MOSUNNY   41  32  70 W23G31    29.63F
WATERLOO       SUNNY     43  30  60 W18G28    29.65F
$$

IAZ064-065-067-068-078-211500-
   EAST CENTRAL IOWA

CITY           SKY/WX    TMP DP  RH WIND       PRES   REMARKS
DAVENPORT      SUNNY     44  31  60 W24G30    29.69F
IOWA CITY      SUNNY     43  31  62 W13       29.73S
MT. PLEASANT * SUNNY     45  28  53 W13G18    29.76S
MUSCATINE *    SUNNY     46  28  49 W22G28    29.73F
QUAD CITIES    SUNNY     47  27  45 W18G26    29.70S
$$

IAZ062-063-075>077-085>089-095>099-211500-
   SOUTHEAST IOWA

CITY           SKY/WX    TMP DP  RH WIND       PRES   REMARKS
BURLINGTON     SUNNY     46  28  49 W14       29.76S
FAIRFIELD *    SUNNY     45  28  53 W13       29.75F
FORT MADISON * SUNNY     46  28  49 W9        29.77F
KEOKUK *       SUNNY     48  28  46 W12       29.78S
OSKALOOSA *      N/A     45  30  57 W14       29.75S
CENTERVILLE *  SUNNY     46  30  53 W16       29.80S
OTTUMWA        SUNNY     45  28  51 W14       29.75S
WASHINGTON *   SUNNY     46  32  57 W13G20    29.74S
$$

ABBREVIATIONS USED IN REMARKS
   TC - TEMPERATURES IN CELSIUS
  WCI - WIND CHILL INDEX
   HX - HEAT INDEX
  VSB - VISIBILITY
$$




USA.gov is the U.S. government's official web portal to all federal, state and local government web resources and services.